This is the latest recevied weather packets stored in our database for station/object KI4HRG. If no packets are shown the sender has not sent any weather packets the latest 10 day(s).
| Time | Temp. | Humidity | Pressure | Rain* | Wind** | Luminosity | Snow |
|---|---|---|---|---|---|---|---|
| 1777451786 | 17.22° C | 99% | 1015.2 hPa | 4.83 mm | - | 0 W/m² | - |
| 1777451483 | 17.22° C | 99% | 1015.6 hPa | 4.83 mm | - | 0 W/m² | - |
| 1777451178 | 17.22° C | 99% | 1015.6 hPa | 3.05 mm | - | 0 W/m² | - |
| 1777450875 | 17.22° C | 99% | 1015.6 hPa | 1.78 mm | - | 0 W/m² | - |
| 1777450570 | 17.22° C | 99% | 1015.7 hPa | 7.87 mm | - | 0 W/m² | - |
| 1777450267 | 17.22° C | 99% | 1015.7 hPa | 8.89 mm | - | 0 W/m² | - |
| 1777449963 | 17.22° C | 99% | 1015.6 hPa | 6.1 mm | - | 0 W/m² | - |
| 1777449660 | 17.22° C | 99% | 1016.1 hPa | 13.72 mm | - | 0 W/m² | - |
| 1777449355 | 17.22° C | 99% | 1016.5 hPa | 13.72 mm | - | 0 W/m² | - |
| 1777449051 | 17.22° C | 99% | 1016.4 hPa | 6.1 mm | - | 0 W/m² | - |
| 1777448748 | 17.22° C | 99% | 1016.3 hPa | 4.83 mm | - | 0 W/m² | - |
| 1777448444 | 17.22° C | 99% | 1016.1 hPa | 7.87 mm | - | 0 W/m² | - |
| 1777448140 | 17.22° C | 99% | 1016 hPa | 8.89 mm | - | 0 W/m² | - |
| 1777447837 | 17.78° C | 99% | 1016.2 hPa | 21.08 mm | - | 0 W/m² | - |
| 1777447533 | 17.78° C | 99% | 1016.1 hPa | 32.51 mm | - | 0 W/m² | - |
| 1777447229 | 17.78° C | 99% | 1016.6 hPa | 44.45 mm | - | 0 W/m² | - |
| 1777446928 | 17.78° C | 99% | 1017.1 hPa | 55.12 mm | - | 0 W/m² | - |
| 1777446624 | 17.78° C | 99% | 1017.9 hPa | 34.8 mm | - | 0 W/m² | - |
| 1777446320 | 17.78° C | 99% | 1017.5 hPa | 28.7 mm | - | 0 W/m² | - |
| 1777446017 | 17.78° C | 99% | 1016.7 hPa | 16.76 mm | - | 0 W/m² | - |
| 1777445714 | 17.78° C | 99% | 1016.4 hPa | 21.08 mm | - | 0 W/m² | - |
| 1777445410 | 17.78° C | 99% | 1017 hPa | 22.86 mm | - | 0 W/m² | - |
| 1777445106 | 17.78° C | 99% | 1016.9 hPa | 22.86 mm | - | 0 W/m² | - |
| 1777444803 | 18.33° C | 99% | 1017.1 hPa | 16.76 mm | - | 0 W/m² | - |
| 1777444498 | 18.33° C | 99% | 1016.9 hPa | 4.32 mm | - | 0 W/m² | - |
* Rain latest hour (hover to see other rain measurements)
** Current wind speed in m/s (hover to see current wind gust speed)